[[{"header":{"parameterUnit":"m.s-1","parameterCategory":2,"la1":30.2991,"la2":30.254,"lo1":-89.0895,"lo2":-89.0444,"dy":0.0017,"dx":0.0017,"nx":28,"ny":28,"refTime":"2025-06-13T03:00:00:Z","depth":"0","parameterNumber":2,"parameterNumberName":"U-component_of_CURRENTS"},"data":[0,0,0,0,0,0,0,0,0,0,0,0,0,0,0,0,0,0,0,0,0,0,0,0,0,0,0,0,0,0,0,0,0,0,0,0,0,0,0,0,0,0,0,0,0,0,0,0,0,0,0,0,0,0,0,0,0,0,-0.2362,-0.2363,0,-0.2379,-0.2379,-0.2379,-0.2338,-0.2337,-0.2336,-0.2335,-0.2297,-0.2297,-0.2297,0,0,0,0,0,0,0,0,0,0,0,0,0,-0.2284,-0.2285,-0.2362,-0.2363,-0.2363,-0.2379,-0.2379,-0.2379,-0.2339,-0.2337,-0.2336,-0.2335,-0.2297,-0.2297,-0.2297,0,0,0,0,0,0,0,0,0,0,0,0,0,-0.2308,-0.2286,-0.2362,-0.2347,-0.2346,-0.2379,-0.2379,-0.2379,-0.2339,-0.2337,-0.2336,-0.2334,-0.2297,-0.2297,-0.2297,-0.2327,0,0,-0.2297,-0.2297,0,0,0,0,0,0,0,0,-0.2307,-0.2311,-0.2349,-0.2348,-0.2347,-0.2358,-0.2337,-0.236,-0.2339,-0.2339,-0.2335,-0.2334,-0.2315,-0.2314,-0.2317,-0.2325,-0.2324,-0.2297,-0.2297,-0.2296,-0.2296,0,0,0,0,0,0,0,-0.2305,-0.231,-0.2366,-0.235,-0.2349,-0.2336,-0.2337,-0.2341,-0.2332,-0.2339,-0.2336,-0.2343,-0.2314,-0.2317,-0.2315,-0.2323,-0.2297,-0.2296,-0.2296,-0.2296,-0.2331,-0.2332,0,0,0,0,0,0,-0.2312,-0.2309,-0.2366,-0.2367,-0.2326,-0.2339,-0.234,-0.2354,-0.2333,-0.233,-0.2345,-0.2341,-0.2318,-0.2316,-0.2314,-0.233,-0.2296,-0.2296,-0.2296,-0.233,-0.2331,-0.2332,0,0,0,0,0,0,-0.231,-0.2317,-0.2365,-0.234,-0.2345,-0.2342,-0.2357,-0.2355,-0.2352,-0.2339,-0.2333,-0.2344,-0.2317,-0.2314,-0.2317,-0.2329,-0.2296,-0.2296,-0.2329,-0.233,-0.2331,-0.2375,0,0,0,0,0,0,-0.2308,-0.2316,-0.2324,-0.2341,-0.2347,-0.2387,-0.2359,-0.2356,-0.2361,-0.2356,-0.2337,-0.2332,-0.2315,-0.2317,-0.2317,-0.2328,-0.2296,-0.2327,-0.2329,-0.2331,-0.2372,-0.2377,-0.2382,0,0,0,0,0,-0.2305,-0.2324,-0.2325,-0.2331,-0.2359,-0.2388,-0.239,-0.238,-0.2362,-0.237,-0.2354,-0.2333,-0.2328,-0.2319,-0.2318,-0.2329,-0.2326,-0.2329,-0.2331,-0.237,-0.2376,-0.2382,0,0,0,0,0,0,-0.2288,-0.2322,-0.2323,-0.2349,-0.2369,-0.2382,-0.2388,-0.2385,-0.2381,-0.2371,-0.2349,-0.2344,-0.2351,-0.2339,-0.2329,-0.2345,-0.2323,-0.2325,-0.2353,-0.2359,-0.2364,-0.236,-0.2296,0,0,0,0,0,-0.2292,-0.2313,-0.2343,-0.2361,-0.2374,-0.2382,-0.239,-0.239,-0.2392,-0.2388,-0.2376,-0.2364,-0.2364,-0.2359,-0.2357,-0.237,-0.2346,-0.2376,-0.2381,-0.2385,-0.2383,-0.2359,-0.2361,-0.2339,-0.2339,-0.2339,0,0,-0.2288,-0.231,-0.2319,-0.2358,-0.2369,-0.2398,-0.2382,-0.2401,-0.2417,-0.2386,-0.2394,-0.2385,-0.2373,-0.2383,-0.2385,-0.2371,-0.2381,-0.2388,-0.2392,-0.2386,-0.2361,-0.2363,-0.2365,-0.2341,-0.234,-0.234,0,0,-0.2295,-0.2313,-0.2336,-0.2362,-0.2392,-0.2405,-0.2413,-0.2434,-0.2432,-0.2449,-0.2428,-0.2425,-0.2427,-0.2418,-0.2414,-0.2448,-0.2412,-0.245,-0.2468,-0.2446,-0.2447,-0.2447,-0.2426,-0.2424,-0.2448,-0.2448,-0.2448,0,-0.2285,-0.2322,-0.2345,-0.2379,-0.2399,-0.2411,-0.244,-0.2452,-0.2467,-0.2468,-0.2454,-0.2452,-0.2442,-0.2449,-0.2459,-0.2458,-0.2438,-0.2445,-0.2451,-0.2451,-0.2451,-0.2428,-0.2426,-0.2451,-0.245,-0.245,-0.245,0,-0.2312,-0.2345,-0.2361,-0.2408,-0.2436,-0.2462,-0.2492,-0.2508,-0.2506,-0.2511,-0.2516,-0.2502,-0.2495,-0.2497,-0.2488,-0.249,-0.2474,-0.2462,-0.2432,-0.2455,-0.2431,-0.2427,-0.2454,-0.2453,-0.2453,-0.2452,0,0,-0.227,-0.2363,-0.2365,-0.2399,-0.2453,-0.248,-0.2514,-0.2544,-0.2556,-0.2559,-0.256,-0.2565,-0.2546,-0.2541,-0.2528,-0.251,-0.2498,-0.2488,-0.2486,-0.2461,-0.2447,-0.2375,-0.2364,-0.2483,-0.2483,-0.2483,-0.2432,0,-0.2276,-0.2348,-0.239,-0.2448,-0.2486,-0.2521,-0.2554,-0.2583,-0.259,-0.2595,-0.2578,-0.2577,-0.2567,-0.2559,-0.2543,-0.2508,-0.249,-0.2513,-0.2432,-0.243,-0.2359,-0.2358,-0.2242,-0.2181,-0.2428,-0.2428,-0.2427,0,-0.2275,-0.2329,-0.2392,-0.2479,-0.2497,-0.2531,-0.2578,-0.2611,-0.2627,-0.263,-0.2622,-0.2606,-0.2588,-0.257,-0.2519,-0.2533,-0.2496,-0.2466,-0.2463,-0.2375,-0.2352,-0.2197,-0.2165,-0.2151,-0.2422,-0.2422,-0.2422,0,-0.2226,-0.2324,-0.2374,-0.2403,-0.2501,-0.2526,-0.2569,-0.2608,-0.2633,-0.2641,-0.2645,-0.2622,-0.2602,-0.2558,-0.2501,-0.2509,-0.243,-0.2431,-0.2334,-0.2329,-0.2202,-0.2185,-0.2137,-0.2391,-0.2391,-0.2391,-0.2392,0,-0.2207,-0.2243,-0.2357,-0.2381,-0.2436,-0.251,-0.2551,-0.2589,-0.2628,-0.2635,-0.2652,-0.2634,-0.2596,-0.2548,-0.2499,-0.2397,-0.2427,-0.2329,-0.2305,-0.2215,-0.2201,-0.216,-0.2187,-0.2389,-0.239,-0.239,-0.2391,0,-0.2127,-0.2209,-0.2266,-0.2375,-0.2413,-0.2442,-0.2544,-0.257,-0.2622,-0.2625,-0.2627,-0.2634,-0.2562,-0.2517,-0.2433,-0.2384,-0.2254,-0.2261,-0.2157,-0.2121,-0.201,-0.2044,-0.198,-0.1927,-0.2141,-0.2139,-0.2137,0,-0.209,-0.2113,-0.2235,-0.2269,-0.2313,-0.2385,-0.2434,-0.2538,-0.2565,-0.2605,-0.2592,-0.2553,-0.2434,-0.2309,-0.2241,-0.2129,-0.2156,-0.1997,-0.1988,-0.1978,-0.1999,-0.2042,-0.2006,-0.1844,-0.184,-0.1837,-0.1834,0,-0.1989,-0.203,-0.2076,-0.2154,-0.2216,-0.2266,-0.2341,-0.2345,-0.2436,-0.239,-0.2275,-0.2173,-0.2158,-0.198,-0.1942,-0.1881,-0.1945,-0.1925,-0.1933,-0.1774,-0.1797,-0.1742,-0.1921,-0.1804,-0.1807,-0.1809,-0.1811,-0.1812,-0.1881,-0.1885,-0.1944,-0.1991,-0.206,-0.203,-0.1952,-0.2001,-0.1905,-0.1712,-0.1818,-0.1517,-0.1724,-0.1617,-0.1603,-0.1625,-0.1706,-0.1584,-0.163,-0.1678,-0.161,-0.1727,-0.1575,-0.1576,-0.1578,-0.1579,-0.158,0,-0.1699,-0.1722,-0.1775,-0.1774,-0.1716,-0.1829,-0.1798,-0.1644,-0.1373,-0.1237,-0.0995,-0.0865,-0.0929,-0.1163,-0.1388,-0.1349,-0.1343,-0.1349,-0.1385,-0.1363,-0.1459,-0.1427,-0.1212,-0.1212,-0.1212,-0.1212,-0.1212,-0.1212,-0.1607,-0.1556,-0.158,-0.1399,-0.1383,-0.1182,-0.107,-0.088,-0.0716,-0.0295,-0.0058,0.0027,-0.0502,-0.1082,-0.1289,-0.1252,-0.1253,-0.1212,-0.1273,-0.1352,-0.1378,-0.1403,-0.1379,-0.1157,-0.1157,-0.1107,-0.1107,-0.1107]},{"header":{"parameterUnit":"m.s-1","parameterCategory":2,"la1":30.2991,"la2":30.254,"lo1":-89.0895,"lo2":-89.0444,"dy":0.0017,"dx":0.0017,"nx":28,"ny":28,"refTime":"2025-06-13T03:00:00:Z","depth":"0","parameterNumber":3,"parameterNumberName":"V-component_of_CURRENTS"},"data":[0,0,0,0,0,0,0,0,0,0,0,0,0,0,0,0,0,0,0,0,0,0,0,0,0,0,0,0,0,0,0,0,0,0,0,0,0,0,0,0,0,0,0,0,0,0,0,0,0,0,0,0,0,0,0,0,0,0,-0.0092,-0.0091,0,-0.0009,-0.0008,-0.0006,0.0056,0.0057,0.0057,0.0058,0.0174,0.0177,0.0179,0,0,0,0,0,0,0,0,0,0,0,0,0,-0.0148,-0.0148,-0.0092,-0.0091,-0.009,-0.0009,-0.0007,-0.0006,0.0056,0.0057,0.0057,0.0058,0.0173,0.0176,0.018,0,0,0,0,0,0,0,0,0,0,0,0,0,-0.0099,-0.0147,-0.0092,-0.005,-0.0045,-0.0009,-0.0007,-0.0006,0.0056,0.0057,0.0057,0.0058,0.0172,0.0176,0.018,0.0191,0,0,0.0192,0.0194,0,0,0,0,0,0,0,0,-0.0102,-0.0097,-0.0057,-0.0053,-0.0048,0.0013,0.0015,0.0061,0.0056,0.0019,0.0058,0.0058,0.0122,0.013,0.0146,0.0196,0.0201,0.0193,0.0195,0.0197,0.0198,0,0,0,0,0,0,0,-0.0106,-0.01,-0.0058,-0.0056,-0.005,-0.0019,-0.0011,0.0025,0.0067,0.0022,0.0026,0.0034,0.0125,0.0141,0.0149,0.0203,0.0192,0.0196,0.0199,0.02,0.0289,0.0288,0,0,0,0,0,0,-0.0122,-0.0104,-0.006,-0.0055,-0.0075,-0.0019,-0.001,-0.0006,0.0066,0.0077,0.0033,0.0036,0.0134,0.0144,0.0153,0.0175,0.0197,0.02,0.0203,0.0289,0.0289,0.0288,0,0,0,0,0,0,-0.0123,-0.0119,-0.0064,-0.0078,-0.0069,-0.0019,-0.0014,-0.0005,0.0012,0.0074,0.0086,0.004,0.0135,0.0148,0.0185,0.018,0.0202,0.0206,0.0289,0.0289,0.0288,0.0216,0,0,0,0,0,0,-0.0125,-0.012,-0.0125,-0.008,-0.0069,-0.0049,-0.0015,-0.0004,0.0015,0.002,0.0084,0.0096,0.0137,0.0179,0.0189,0.0186,0.0209,0.0289,0.0289,0.0289,0.0218,0.0213,0.0209,0,0,0,0,0,-0.0128,-0.014,-0.0126,-0.012,-0.0077,-0.005,-0.0041,-0.0002,0.0014,0.0017,0.0063,0.0094,0.0186,0.0182,0.0194,0.0192,0.0289,0.0289,0.0289,0.022,0.0214,0.0209,0,0,0,0,0,0,-0.0168,-0.0133,-0.0117,-0.0118,-0.0089,-0.004,-0.0036,-0.0009,0.0029,0.0034,0.0093,0.0108,0.0139,0.0175,0.0169,0.0218,0.0242,0.0244,0.0186,0.0181,0.0176,0.0162,0.0212,0,0,0,0,0,-0.0181,-0.018,-0.0139,-0.0142,-0.013,-0.0085,-0.007,-0.0044,-0.0004,0.0013,0.0058,0.0106,0.0147,0.0171,0.0211,0.0236,0.0273,0.0243,0.0238,0.0234,0.0231,0.0276,0.0275,0.0288,0.0288,0.0288,0,0,-0.0198,-0.0179,-0.0179,-0.015,-0.0125,-0.0118,-0.0074,-0.0058,-0.0048,0.0019,0.0044,0.009,0.015,0.0179,0.0197,0.0209,0.025,0.0234,0.023,0.0229,0.0275,0.0274,0.0273,0.0288,0.0288,0.0288,0,0,-0.0238,-0.0216,-0.023,-0.021,-0.018,-0.0148,-0.0148,-0.0101,-0.0076,-0.0047,0.0004,0.0047,0.0106,0.015,0.0179,0.0173,0.0222,0.0185,0.0152,0.0195,0.0194,0.0194,0.0238,0.0242,0.0184,0.0184,0.0184,0,-0.0262,-0.0273,-0.023,-0.0238,-0.0229,-0.0167,-0.018,-0.0144,-0.0091,-0.0071,-0.005,0.0044,0.0092,0.0136,0.0136,0.0162,0.0194,0.0166,0.0188,0.0188,0.0189,0.0235,0.024,0.0181,0.0181,0.0181,0.0182,0,-0.031,-0.0317,-0.0324,-0.0312,-0.0294,-0.0296,-0.0243,-0.0219,-0.018,-0.0139,-0.0089,-0.0019,0.0038,0.006,0.0098,0.0129,0.0153,0.0173,0.0197,0.0183,0.0232,0.0239,0.0176,0.0177,0.0178,0.0179,0,0,-0.0367,-0.0363,-0.0364,-0.0381,-0.0336,-0.0334,-0.0307,-0.027,-0.0256,-0.0191,-0.0168,-0.0089,-0.0043,-0.0007,0.005,0.0091,0.0128,0.0129,0.0133,0.0164,0.0224,0.0288,0.0302,0.0149,0.015,0.015,0.0255,0,-0.042,-0.0468,-0.0434,-0.047,-0.0492,-0.0425,-0.0409,-0.0361,-0.0303,-0.0261,-0.0173,-0.0129,-0.007,-0.0045,0.0007,0.0099,0.0143,0.0098,0.0241,0.0245,0.0297,0.0311,0.0387,0.0491,0.0262,0.0264,0.0264,0,-0.0477,-0.0505,-0.0556,-0.0565,-0.0565,-0.0564,-0.0527,-0.0504,-0.0412,-0.0367,-0.0292,-0.0214,-0.0131,-0.0088,0.0062,0.003,0.0117,0.0189,0.0195,0.0285,0.0323,0.0471,0.0513,0.0662,0.0276,0.0275,0.0274,0,-0.0558,-0.0588,-0.0638,-0.0641,-0.0633,-0.0633,-0.0617,-0.054,-0.0535,-0.0432,-0.0413,-0.0283,-0.0223,-0.0102,0.0068,0.006,0.0234,0.0242,0.0383,0.0389,0.0499,0.0513,0.0696,0.0338,0.0338,0.0338,0.0337,0,-0.0633,-0.0672,-0.0685,-0.0716,-0.0773,-0.0722,-0.0752,-0.0699,-0.0643,-0.0599,-0.0483,-0.0398,-0.0225,-0.0088,0.005,0.0253,0.0227,0.0386,0.0424,0.0476,0.0487,0.0657,0.0696,0.0342,0.0341,0.034,0.0339,0,-0.071,-0.0717,-0.0786,-0.0805,-0.0817,-0.0855,-0.0872,-0.0878,-0.0805,-0.074,-0.0712,-0.0508,-0.0288,-0.0119,0.0112,0.0235,0.0519,0.0487,0.0541,0.0584,0.0841,0.0871,0.1068,0.1164,0.0651,0.0653,0.0655,0,-0.0752,-0.0796,-0.0868,-0.0917,-0.093,-0.0984,-0.101,-0.0969,-0.0937,-0.0757,-0.0704,-0.0499,-0.0228,0.0099,0.031,0.0549,0.0641,0.074,0.0739,0.0879,0.0941,0.095,0.1016,0.0857,0.086,0.0863,0.0865,0,-0.0827,-0.0849,-0.0906,-0.1006,-0.1062,-0.1108,-0.1107,-0.1099,-0.0967,-0.0845,-0.0521,-0.0285,0.0024,0.0386,0.0604,0.0742,0.0863,0.0804,0.0946,0.1118,0.1145,0.1248,0.0757,0.089,0.0888,0.0886,0.0885,0.0884,-0.0862,-0.0925,-0.0987,-0.1063,-0.1122,-0.1095,-0.1049,-0.0976,-0.0824,-0.0486,-0.031,0.0144,0.0518,0.0877,0.0969,0.116,0.1087,0.1269,0.1294,0.129,0.1391,0.0951,0.1127,0.1126,0.1125,0.1124,0.1123,0,-0.0853,-0.0919,-0.1026,-0.1056,-0.1045,-0.1084,-0.1,-0.0853,-0.0538,-0.0268,0.0122,0.0761,0.1111,0.1312,0.1524,0.166,0.1669,0.1724,0.1766,0.181,0.1439,0.1457,0.1718,0.1718,0.1718,0.1718,0.1717,0.1717,-0.084,-0.0912,-0.0958,-0.0913,-0.0915,-0.0778,-0.0663,-0.0428,-0.0188,0.0355,0.0762,0.1082,0.1435,0.1843,0.2062,0.208,0.2218,0.2189,0.2246,0.2,0.1959,0.192,0.195,0.231,0.2311,0.2637,0.264,0.2643]}],[{"header":{"parameterUnit":"m.s-1","parameterCategory":2,"la1":30.2991,"la2":30.254,"lo1":-89.0895,"lo2":-89.0444,"dy":0.0017,"dx":0.0017,"nx":28,"ny":28,"refTime":"2025-06-13T03:00:00:Z","depth":"2","parameterNumber":2,"parameterNumberName":"U-component_of_CURRENTS"},"data":[0,0,0,0,0,0,0,0,0,0,0,0,0,0,0,0,0,0,0,0,0,0,0,0,0,0,0,0,0,0,0,0,0,0,0,0,0,0,0,0,0,0,0,0,0,0,0,0,0,0,0,0,0,0,0,0,0,0,-0.2213,-0.2213,0,-0.2235,-0.2235,-0.2235,-0.2204,-0.2203,-0.2202,-0.2201,-0.2179,-0.2179,-0.2179,0,0,0,0,0,0,0,0,0,0,0,0,0,-0.2142,-0.2143,-0.2213,-0.2213,-0.2214,-0.2235,-0.2235,-0.2235,-0.2204,-0.2203,-0.2202,-0.2201,-0.2179,-0.2179,-0.2179,0,0,0,0,0,0,0,0,0,0,0,0,0,-0.2167,-0.2144,-0.2213,-0.2203,-0.2202,-0.2235,-0.2235,-0.2235,-0.2204,-0.2203,-0.2202,-0.22,-0.2178,-0.2179,-0.2179,-0.2207,0,0,-0.218,-0.218,0,0,0,0,0,0,0,0,-0.2165,-0.2169,-0.2204,-0.2203,-0.2203,-0.2217,-0.2202,-0.2224,-0.2205,-0.2201,-0.2201,-0.22,-0.219,-0.2189,-0.2194,-0.2206,-0.2205,-0.218,-0.218,-0.218,-0.2181,0,0,0,0,0,0,0,-0.2164,-0.2168,-0.2219,-0.2204,-0.2204,-0.2196,-0.2198,-0.2206,-0.22,-0.2201,-0.2199,-0.2206,-0.2189,-0.2193,-0.2193,-0.2205,-0.218,-0.218,-0.2181,-0.2181,-0.2226,-0.2227,0,0,0,0,0,0,-0.2168,-0.2167,-0.2218,-0.222,-0.2183,-0.2199,-0.2201,-0.2212,-0.2201,-0.2199,-0.2207,-0.2205,-0.2193,-0.2192,-0.2192,-0.2216,-0.218,-0.2181,-0.2181,-0.2225,-0.2226,-0.2227,0,0,0,0,0,0,-0.2166,-0.2173,-0.2217,-0.2195,-0.2201,-0.2202,-0.2214,-0.2213,-0.2215,-0.2206,-0.2203,-0.221,-0.2192,-0.2191,-0.2201,-0.2215,-0.2181,-0.2181,-0.2224,-0.2226,-0.2227,-0.2269,0,0,0,0,0,0,-0.2164,-0.2172,-0.2179,-0.2196,-0.2202,-0.224,-0.2216,-0.2215,-0.2223,-0.2219,-0.2208,-0.2205,-0.2191,-0.22,-0.2201,-0.2215,-0.2181,-0.2223,-0.2225,-0.2226,-0.2267,-0.2272,-0.2277,0,0,0,0,0,-0.2162,-0.2179,-0.218,-0.2186,-0.2213,-0.2241,-0.2244,-0.2238,-0.2224,-0.2233,-0.2224,-0.2205,-0.2212,-0.2202,-0.2202,-0.2216,-0.2222,-0.2224,-0.2226,-0.2264,-0.2271,-0.2277,0,0,0,0,0,0,-0.2149,-0.2178,-0.2179,-0.2203,-0.2223,-0.2237,-0.2245,-0.2244,-0.2246,-0.2238,-0.2222,-0.2219,-0.2233,-0.2223,-0.2211,-0.2235,-0.2213,-0.2216,-0.2242,-0.2248,-0.2253,-0.2249,-0.2182,0,0,0,0,0,-0.2153,-0.217,-0.2198,-0.2215,-0.2227,-0.2238,-0.2247,-0.2249,-0.2255,-0.2253,-0.2247,-0.2242,-0.2246,-0.2244,-0.2247,-0.2263,-0.224,-0.2272,-0.2277,-0.2281,-0.2279,-0.226,-0.2263,-0.2235,-0.2235,-0.2235,0,0,-0.215,-0.2169,-0.2178,-0.2213,-0.2225,-0.2253,-0.2239,-0.226,-0.2278,-0.2252,-0.2267,-0.2262,-0.2255,-0.2271,-0.2276,-0.2262,-0.2278,-0.2284,-0.2288,-0.2283,-0.2263,-0.2265,-0.2268,-0.2237,-0.2236,-0.2236,0,0,-0.2159,-0.2175,-0.2194,-0.2219,-0.2249,-0.2262,-0.2271,-0.2294,-0.2295,-0.2318,-0.2302,-0.2304,-0.2313,-0.2307,-0.2306,-0.2343,-0.2308,-0.2346,-0.2365,-0.2348,-0.2349,-0.235,-0.2325,-0.2324,-0.2345,-0.2345,-0.2345,0,-0.2152,-0.2185,-0.2204,-0.2235,-0.2256,-0.2269,-0.2298,-0.2313,-0.2333,-0.2337,-0.2327,-0.2335,-0.2329,-0.234,-0.2352,-0.2353,-0.2334,-0.2342,-0.2353,-0.2353,-0.2354,-0.2327,-0.2325,-0.2348,-0.2347,-0.2347,-0.2347,0,-0.2178,-0.2209,-0.2224,-0.2267,-0.2294,-0.2321,-0.2352,-0.237,-0.2374,-0.2381,-0.2393,-0.2386,-0.2385,-0.2389,-0.2383,-0.239,-0.2372,-0.2363,-0.2334,-0.2359,-0.233,-0.2327,-0.2351,-0.235,-0.2349,-0.2349,0,0,-0.2143,-0.2226,-0.2229,-0.2258,-0.2314,-0.2337,-0.2375,-0.2408,-0.2421,-0.2432,-0.2437,-0.245,-0.2436,-0.2434,-0.2424,-0.2411,-0.2401,-0.2392,-0.239,-0.2361,-0.2355,-0.2279,-0.2268,-0.2393,-0.2392,-0.2392,-0.2333,0,-0.2152,-0.2216,-0.2256,-0.231,-0.2344,-0.238,-0.2415,-0.2445,-0.2457,-0.2467,-0.2457,-0.2462,-0.2457,-0.2453,-0.2442,-0.2412,-0.2395,-0.2418,-0.234,-0.2338,-0.2262,-0.2263,-0.2095,-0.2023,-0.233,-0.233,-0.2329,0,-0.2154,-0.22,-0.2259,-0.2336,-0.2353,-0.2386,-0.2433,-0.2467,-0.249,-0.2497,-0.2498,-0.2488,-0.248,-0.2465,-0.2423,-0.2438,-0.2402,-0.2374,-0.2371,-0.2281,-0.2255,-0.2048,-0.2005,-0.2324,-0.2324,-0.2324,-0.2325,0,-0.2109,-0.2197,-0.2242,-0.227,-0.2359,-0.2383,-0.2423,-0.2465,-0.2489,-0.2508,-0.2513,-0.2504,-0.2489,-0.2454,-0.2404,-0.2414,-0.234,-0.2344,-0.2241,-0.2235,-0.2065,-0.2045,-0.2307,-0.2307,-0.2307,-0.2307,-0.2307,0,-0.2097,-0.2129,-0.2225,-0.2249,-0.2291,-0.2364,-0.2398,-0.2437,-0.2481,-0.2497,-0.2518,-0.251,-0.2485,-0.2442,-0.24,-0.2301,-0.2335,-0.2236,-0.2212,-0.2076,-0.2058,-0.23,-0.23,-0.2305,-0.2306,-0.2306,-0.2306,0,-0.203,-0.2102,-0.2151,-0.2245,-0.2271,-0.2295,-0.2378,-0.2396,-0.2461,-0.2478,-0.2485,-0.2504,-0.2443,-0.2399,-0.2327,-0.2282,-0.2205,-0.2162,-0.2001,-0.1959,-0.2116,-0.2119,-0.2044,-0.204,-0.2038,-0.2035,-0.2033,0,-0.2001,-0.2022,-0.2117,-0.2132,-0.2169,-0.2223,-0.2251,-0.2355,-0.2382,-0.2463,-0.2455,-0.2431,-0.2366,-0.2236,-0.2129,-0.2015,-0.2106,-0.1834,-0.1826,-0.2103,-0.2088,-0.2095,-0.2102,-0.1618,-0.1613,-0.1609,-0.1606,0,-0.192,-0.1954,-0.1988,-0.2021,-0.2055,-0.2102,-0.2162,-0.2201,-0.2316,-0.2356,-0.2372,-0.2331,-0.2192,-0.198,-0.1843,-0.1768,-0.184,-0.1745,-0.2054,-0.172,-0.1699,-0.1686,-0.1707,-0.1568,-0.1572,-0.1574,-0.1576,-0.1578,-0.183,-0.1825,-0.1859,-0.1874,-0.1923,-0.1957,-0.1966,-0.2042,-0.2094,-0.2141,-0.2245,-0.2132,-0.2004,-0.1687,-0.1557,-0.1446,-0.1572,-0.1518,-0.1532,-0.155,-0.152,-0.1497,-0.1321,-0.1323,-0.1325,-0.1327,-0.1328,0,-0.17,-0.1699,-0.1703,-0.1727,-0.1712,-0.1809,-0.1875,-0.1852,-0.1873,-0.1954,-0.199,-0.1727,-0.1561,-0.1414,-0.1161,-0.1105,-0.1104,-0.1076,-0.1078,-0.1115,-0.1148,-0.1099,-0.0788,-0.0786,-0.0785,-0.0784,0,0,-0.1627,-0.1572,-0.1569,-0.149,-0.1527,-0.1533,-0.1561,-0.1532,-0.1556,-0.1505,-0.147,-0.1643,-0.1471,-0.12,-0.108,-0.09,-0.1029,-0.0861,-0.1294,-0.1342,-0.1375,-0.1391,-0.1355,0,0,0,0,0]},{"header":{"parameterUnit":"m.s-1","parameterCategory":2,"la1":30.2991,"la2":30.254,"lo1":-89.0895,"lo2":-89.0444,"dy":0.0017,"dx":0.0017,"nx":28,"ny":28,"refTime":"2025-06-13T03:00:00:Z","depth":"2","parameterNumber":3,"parameterNumberName":"V-component_of_CURRENTS"},"data":[0,0,0,0,0,0,0,0,0,0,0,0,0,0,0,0,0,0,0,0,0,0,0,0,0,0,0,0,0,0,0,0,0,0,0,0,0,0,0,0,0,0,0,0,0,0,0,0,0,0,0,0,0,0,0,0,0,0,-0.0198,-0.0197,0,-0.0121,-0.012,-0.0119,-0.0065,-0.0064,-0.0064,-0.0063,0.0044,0.0046,0.0049,0,0,0,0,0,0,0,0,0,0,0,0,0,-0.025,-0.0249,-0.0198,-0.0197,-0.0196,-0.0122,-0.012,-0.0119,-0.0065,-0.0064,-0.0064,-0.0063,0.0043,0.0046,0.0049,0,0,0,0,0,0,0,0,0,0,0,0,0,-0.0205,-0.0249,-0.0198,-0.0161,-0.0157,-0.0122,-0.012,-0.0119,-0.0065,-0.0064,-0.0064,-0.0063,0.0042,0.0046,0.005,0.0062,0,0,0.0061,0.0063,0,0,0,0,0,0,0,0,-0.0208,-0.0203,-0.0167,-0.0163,-0.0159,-0.0103,-0.0099,-0.0057,-0.0065,-0.0098,-0.0063,-0.0063,-0.0003,0.0004,0.0019,0.0067,0.0072,0.0062,0.0064,0.0065,0.0067,0,0,0,0,0,0,0,-0.0211,-0.0206,-0.0166,-0.0166,-0.0161,-0.0132,-0.0125,-0.0091,-0.0053,-0.0095,-0.0092,-0.0085,-0.0001,0.0015,0.0022,0.0074,0.0061,0.0065,0.0067,0.0069,0.0156,0.0156,0,0,0,0,0,0,-0.0226,-0.0209,-0.0169,-0.0164,-0.0184,-0.0132,-0.0124,-0.012,-0.0054,-0.0044,-0.0086,-0.0083,0.0008,0.0017,0.0026,0.0052,0.0065,0.0069,0.0071,0.0156,0.0156,0.0156,0,0,0,0,0,0,-0.0227,-0.0223,-0.0172,-0.0185,-0.0177,-0.0132,-0.0128,-0.0119,-0.0103,-0.0047,-0.0036,-0.0078,0.0009,0.002,0.0056,0.0056,0.0071,0.0074,0.0156,0.0156,0.0156,0.0099,0,0,0,0,0,0,-0.0229,-0.0224,-0.0228,-0.0187,-0.0177,-0.0157,-0.0128,-0.0118,-0.01,-0.0096,-0.0038,-0.0027,0.001,0.005,0.006,0.0061,0.0077,0.0156,0.0156,0.0156,0.0101,0.0098,0.0094,0,0,0,0,0,-0.0231,-0.0241,-0.0229,-0.0224,-0.0184,-0.0158,-0.015,-0.0115,-0.0101,-0.0098,-0.0056,-0.0029,0.0058,0.0053,0.0065,0.0067,0.0156,0.0156,0.0156,0.0103,0.0098,0.0095,0,0,0,0,0,0,-0.0266,-0.0235,-0.0221,-0.0221,-0.0194,-0.0149,-0.0145,-0.0121,-0.0086,-0.0081,-0.0028,-0.0014,0.0017,0.0049,0.0043,0.0093,0.0111,0.0114,0.0067,0.0063,0.006,0.0049,0.008,0,0,0,0,0,-0.0277,-0.0276,-0.0239,-0.024,-0.023,-0.0189,-0.0175,-0.0151,-0.0115,-0.0099,-0.0057,-0.0013,0.0026,0.0049,0.0086,0.0113,0.0149,0.0123,0.0119,0.0116,0.0115,0.0167,0.0168,0.0157,0.0157,0.0157,0,0,-0.0292,-0.0275,-0.0274,-0.0248,-0.0225,-0.0216,-0.0179,-0.0163,-0.0151,-0.0093,-0.0066,-0.0025,0.0029,0.006,0.0078,0.0088,0.0138,0.0116,0.0113,0.0114,0.0167,0.0168,0.0169,0.0157,0.0157,0.0157,0,0,-0.0324,-0.0305,-0.0316,-0.0297,-0.0269,-0.0241,-0.024,-0.0197,-0.0173,-0.0144,-0.0098,-0.0058,-0.0003,0.0041,0.0069,0.0069,0.0115,0.0079,0.0058,0.0107,0.0108,0.011,0.0154,0.016,0.008,0.008,0.008,0,-0.0345,-0.0351,-0.0315,-0.0319,-0.0309,-0.0257,-0.0263,-0.023,-0.0181,-0.0158,-0.0145,-0.0053,-0.001,0.004,0.004,0.0062,0.0094,0.0066,0.0102,0.0104,0.0107,0.0152,0.0159,0.0077,0.0078,0.0078,0.0078,0,-0.0382,-0.0386,-0.0391,-0.0377,-0.0359,-0.0357,-0.0309,-0.0285,-0.025,-0.0211,-0.0158,-0.0096,-0.0039,-0.002,0.0011,0.0052,0.007,0.0087,0.0109,0.0104,0.0152,0.0161,0.0074,0.0075,0.0075,0.0076,0,0,-0.0432,-0.0422,-0.0423,-0.043,-0.0391,-0.0383,-0.0357,-0.0315,-0.0293,-0.0238,-0.0204,-0.0135,-0.0094,-0.006,-0.0011,0.0034,0.0078,0.0062,0.0066,0.01,0.0185,0.0222,0.0236,0.01,0.0101,0.0102,0.0209,0,-0.0474,-0.0506,-0.0477,-0.0495,-0.0508,-0.0448,-0.0427,-0.0379,-0.0324,-0.0275,-0.0196,-0.0147,-0.011,-0.0082,-0.0033,0.0053,0.0099,0.0047,0.019,0.0194,0.0223,0.0246,0.0226,0.0322,0.0218,0.022,0.0221,0,-0.0521,-0.0537,-0.0572,-0.056,-0.0557,-0.0552,-0.0504,-0.0476,-0.0384,-0.0339,-0.0268,-0.0199,-0.0118,-0.0091,0.0049,0.0013,0.009,0.0155,0.0162,0.0223,0.0248,0.0312,0.0343,0.0236,0.0235,0.0234,0.0233,0,-0.0588,-0.0599,-0.0633,-0.0631,-0.0608,-0.0603,-0.0579,-0.0501,-0.0464,-0.0375,-0.0331,-0.0229,-0.0165,-0.0064,0.0073,0.0062,0.023,0.0234,0.0342,0.0346,0.0371,0.0375,0.0331,0.0331,0.033,0.033,0.033,0,-0.0648,-0.0672,-0.0671,-0.0692,-0.0718,-0.067,-0.0663,-0.0616,-0.0529,-0.048,-0.0372,-0.0295,-0.0154,-0.0034,0.007,0.024,0.0232,0.0348,0.0381,0.0351,0.0351,0.0309,0.0305,0.0334,0.0333,0.0332,0.0332,0,-0.0717,-0.0715,-0.0759,-0.0757,-0.0757,-0.0776,-0.0728,-0.0708,-0.0617,-0.0545,-0.0515,-0.0336,-0.0174,-0.0028,0.0156,0.0249,0.0394,0.0454,0.0408,0.0434,0.0475,0.0467,0.0584,0.0587,0.0588,0.059,0.0592,0,-0.0755,-0.0788,-0.0822,-0.085,-0.0854,-0.0863,-0.0858,-0.0773,-0.0732,-0.0556,-0.0519,-0.0333,-0.0167,0.012,0.029,0.0483,0.0466,0.0574,0.0553,0.0483,0.0504,0.0492,0.0482,0.0563,0.0564,0.0565,0.0566,0,-0.0827,-0.0841,-0.0876,-0.0941,-0.0962,-0.0976,-0.0953,-0.0934,-0.0809,-0.0693,-0.0496,-0.0335,-0.0039,0.0205,0.0438,0.0539,0.0537,0.06,0.0557,0.0498,0.0472,0.0489,0.0478,0.0573,0.0573,0.0572,0.0572,0.0571,-0.0874,-0.0922,-0.0971,-0.1027,-0.1062,-0.1086,-0.1084,-0.0996,-0.09,-0.0662,-0.0497,-0.0203,-0.0018,0.0352,0.0509,0.0644,0.0645,0.0674,0.0668,0.0661,0.0636,0.0614,0.0738,0.0738,0.0738,0.0738,0.0738,0,-0.0938,-0.0983,-0.1046,-0.1121,-0.1174,-0.1174,-0.1138,-0.1072,-0.0934,-0.0619,-0.0351,-0.013,0.0164,0.0352,0.0597,0.0737,0.0699,0.0736,0.0664,0.0657,0.065,0.062,0.072,0.072,0.0721,0.0721,0,0,-0.0972,-0.1048,-0.1082,-0.1197,-0.1257,-0.1314,-0.1297,-0.1121,-0.0884,-0.0542,-0.0275,0.0027,0.0219,0.0354,0.0514,0.0657,0.0624,0.0654,0.066,0.0554,0.0546,0.0609,0.0556,0,0,0,0,0]}],[{"header":{"parameterUnit":"m.s-1","parameterCategory":2,"la1":30.2991,"la2":30.254,"lo1":-89.0895,"lo2":-89.0444,"dy":0.0017,"dx":0.0017,"nx":28,"ny":28,"refTime":"2025-06-13T03:00:00:Z","depth":"4","parameterNumber":2,"parameterNumberName":"U-component_of_CURRENTS"},"data":[0,0,0,0,0,0,0,0,0,0,0,0,0,0,0,0,0,0,0,0,0,0,0,0,0,0,0,0,0,0,0,0,0,0,0,0,0,0,0,0,0,0,0,0,0,0,0,0,0,0,0,0,0,0,0,0,0,0,-0.1609,-0.161,0,-0.167,-0.167,-0.1671,-0.1701,-0.1701,-0.1701,-0.1701,-0.1755,-0.1756,-0.1758,0,0,0,0,0,0,0,0,0,0,0,0,0,-0.1522,-0.1524,-0.1609,-0.161,-0.1611,-0.167,-0.167,-0.1671,-0.1701,-0.1701,-0.1701,-0.1701,-0.1755,-0.1756,-0.1758,0,0,0,0,0,0,0,0,0,0,0,0,0,-0.1568,-0.1524,-0.1609,-0.1634,-0.1637,-0.1669,-0.167,-0.1671,-0.1701,-0.1701,-0.1701,-0.1701,-0.1754,-0.1756,-0.1758,-0.1765,0,0,-0.1764,-0.1765,0,0,0,0,0,0,0,0,-0.1565,-0.1571,-0.163,-0.1633,-0.1636,-0.1679,-0.166,-0.1703,-0.1701,-0.1675,-0.1701,-0.1702,-0.173,-0.1734,-0.1743,-0.1768,-0.177,-0.1764,-0.1765,-0.1766,-0.1767,0,0,0,0,0,0,0,-0.1562,-0.1568,-0.1632,-0.1631,-0.1634,-0.1644,-0.165,-0.1668,-0.1699,-0.1677,-0.168,-0.1689,-0.1732,-0.1741,-0.1744,-0.1771,-0.1764,-0.1766,-0.1767,-0.1768,-0.1865,-0.1867,0,0,0,0,0,0,-0.1558,-0.1565,-0.163,-0.1634,-0.1602,-0.1645,-0.1652,-0.1664,-0.1699,-0.1705,-0.1689,-0.169,-0.1737,-0.1742,-0.1746,-0.1816,-0.1766,-0.1768,-0.1769,-0.1864,-0.1866,-0.1867,0,0,0,0,0,0,-0.1555,-0.1563,-0.1627,-0.1602,-0.1611,-0.1646,-0.1659,-0.1665,-0.17,-0.1708,-0.1714,-0.1721,-0.1738,-0.1743,-0.1787,-0.1816,-0.1769,-0.1771,-0.1862,-0.1864,-0.1866,-0.1919,0,0,0,0,0,0,-0.1553,-0.1562,-0.1582,-0.1602,-0.1612,-0.1665,-0.1659,-0.1666,-0.1705,-0.1708,-0.1738,-0.1741,-0.1738,-0.1785,-0.1789,-0.1818,-0.1772,-0.186,-0.1863,-0.1866,-0.1915,-0.1922,-0.1928,0,0,0,0,0,-0.1549,-0.1572,-0.1583,-0.1592,-0.1635,-0.1666,-0.1673,-0.1697,-0.1706,-0.1728,-0.175,-0.1742,-0.1805,-0.1788,-0.1793,-0.1823,-0.1859,-0.1862,-0.1866,-0.1912,-0.1921,-0.1928,0,0,0,0,0,0,-0.1547,-0.1578,-0.159,-0.1623,-0.1652,-0.1672,-0.1699,-0.1714,-0.1749,-0.176,-0.1763,-0.1769,-0.1817,-0.1815,-0.1796,-0.1859,-0.183,-0.1834,-0.1863,-0.1872,-0.1878,-0.1869,-0.1774,0,0,0,0,0,-0.1556,-0.1581,-0.161,-0.1639,-0.1656,-0.1683,-0.1704,-0.1722,-0.1749,-0.1766,-0.1787,-0.1809,-0.183,-0.1848,-0.1865,-0.1903,-0.1879,-0.1925,-0.1932,-0.1938,-0.1934,-0.1923,-0.1928,-0.1878,-0.1878,-0.1878,0,0,-0.1563,-0.1584,-0.16,-0.1641,-0.1665,-0.1699,-0.1697,-0.1739,-0.1772,-0.1766,-0.1825,-0.1838,-0.1846,-0.1887,-0.1908,-0.1892,-0.194,-0.1942,-0.1946,-0.194,-0.1927,-0.1931,-0.1935,-0.188,-0.188,-0.1879,0,0,-0.1581,-0.1612,-0.1637,-0.1666,-0.1711,-0.1729,-0.1747,-0.1787,-0.1813,-0.1865,-0.1867,-0.1895,-0.1939,-0.1943,-0.195,-0.2005,-0.1976,-0.202,-0.2048,-0.2038,-0.2041,-0.2044,-0.2019,-0.2019,-0.2023,-0.2023,-0.2023,0,-0.1592,-0.1627,-0.1651,-0.1684,-0.1715,-0.1746,-0.1783,-0.1813,-0.1865,-0.1884,-0.1893,-0.1948,-0.196,-0.199,-0.2013,-0.2019,-0.2005,-0.2016,-0.2044,-0.2047,-0.2048,-0.2022,-0.2022,-0.2026,-0.2025,-0.2025,-0.2025,0,-0.1619,-0.1662,-0.1683,-0.1734,-0.1769,-0.1809,-0.1851,-0.1893,-0.1928,-0.1949,-0.1999,-0.2014,-0.2039,-0.2054,-0.2054,-0.208,-0.2062,-0.2053,-0.202,-0.2056,-0.2027,-0.2025,-0.203,-0.2029,-0.2028,-0.2027,0,0,-0.1598,-0.1685,-0.1695,-0.1732,-0.1802,-0.1829,-0.1891,-0.1942,-0.1974,-0.2022,-0.2052,-0.2097,-0.2099,-0.2107,-0.211,-0.2108,-0.2114,-0.2095,-0.2093,-0.2062,-0.2084,-0.1946,-0.1931,-0.2113,-0.2113,-0.2113,-0.2057,0,-0.1614,-0.1682,-0.1725,-0.1797,-0.1835,-0.1889,-0.1939,-0.1989,-0.2028,-0.2065,-0.2081,-0.2114,-0.2121,-0.2136,-0.2138,-0.212,-0.2113,-0.2129,-0.206,-0.2057,-0.1923,-0.1925,-0.2113,-0.2056,-0.2055,-0.2055,-0.2055,0,-0.1616,-0.1666,-0.174,-0.1828,-0.185,-0.1901,-0.1976,-0.2024,-0.2076,-0.2104,-0.2134,-0.2144,-0.2161,-0.2155,-0.2138,-0.2151,-0.2125,-0.2104,-0.2101,-0.195,-0.1915,-0.2012,-0.2051,-0.2052,-0.2052,-0.2052,-0.2052,0,-0.1572,-0.1672,-0.1733,-0.1766,-0.1869,-0.1915,-0.197,-0.2037,-0.2072,-0.2126,-0.2144,-0.2165,-0.2171,-0.2154,-0.2122,-0.2137,-0.2077,-0.2085,-0.1933,-0.1923,-0.2042,-0.204,-0.2062,-0.2062,-0.2062,-0.2062,-0.2062,0,-0.1554,-0.1605,-0.1723,-0.1756,-0.1821,-0.1904,-0.1965,-0.202,-0.2083,-0.2101,-0.216,-0.2153,-0.2173,-0.2143,-0.2116,-0.2002,-0.207,-0.1924,-0.1894,-0.2066,-0.2067,-0.204,-0.2039,-0.206,-0.206,-0.2061,-0.2061,0,-0.1488,-0.1572,-0.1643,-0.1765,-0.1803,-0.1848,-0.1956,-0.198,-0.2068,-0.2089,-0.2107,-0.2144,-0.2095,-0.2084,-0.2035,-0.1971,-0.1893,-0.1838,-0.2008,-0.1991,-0.1752,-0.1754,-0.1661,-0.1656,-0.1651,-0.1647,-0.1644,0,-0.1457,-0.1492,-0.1626,-0.1656,-0.1716,-0.1797,-0.1833,-0.1949,-0.1969,-0.2054,-0.2036,-0.2036,-0.2035,-0.1848,-0.1861,-0.1772,-0.1756,-0.1714,-0.1747,-0.1728,-0.1709,-0.1718,-0.1727,-0.1637,-0.1636,-0.1634,-0.1633,0,-0.1387,-0.1449,-0.1501,-0.156,-0.1615,-0.1666,-0.1736,-0.1742,-0.1851,-0.1957,-0.1909,-0.1869,-0.18,-0.1741,-0.1674,-0.1622,-0.1742,-0.1666,-0.1676,-0.1707,-0.1697,-0.1685,-0.1699,-0.1617,-0.1619,-0.1621,-0.1622,0,-0.1322,-0.1334,-0.1397,-0.1431,-0.1495,-0.1498,-0.1564,-0.1584,-0.1628,-0.1748,-0.1719,-0.1725,-0.1776,-0.1659,-0.1599,-0.1528,-0.1514,-0.1481,-0.1501,-0.1519,-0.1494,-0.1462,-0.1269,0,0,0,0,0,-0.1244,-0.1231,-0.1253,-0.1274,-0.1329,-0.1359,-0.1468,-0.1536,-0.1657,-0.1581,-0.1654,-0.1588,-0.1506,-0.1507,-0.1397,-0.1509,-0.1504,-0.1376,-0.1475,-0.1528,-0.1547,-0.153,0,0,0,0,0,0,-0.1184,-0.1203,-0.1201,-0.1127,-0.1106,-0.1142,-0.1207,-0.1297,-0.1277,-0.1412,-0.1367,-0.148,-0.1408,-0.1519,-0.1352,-0.1352,-0.1382,-0.14,-0.1396,-0.1518,-0.1535,-0.1549,-0.1538,0,0,0,0,0]},{"header":{"parameterUnit":"m.s-1","parameterCategory":2,"la1":30.2991,"la2":30.254,"lo1":-89.0895,"lo2":-89.0444,"dy":0.0017,"dx":0.0017,"nx":28,"ny":28,"refTime":"2025-06-13T03:00:00:Z","depth":"4","parameterNumber":3,"parameterNumberName":"V-component_of_CURRENTS"},"data":[0,0,0,0,0,0,0,0,0,0,0,0,0,0,0,0,0,0,0,0,0,0,0,0,0,0,0,0,0,0,0,0,0,0,0,0,0,0,0,0,0,0,0,0,0,0,0,0,0,0,0,0,0,0,0,0,0,0,-0.017,-0.0169,0,-0.0117,-0.0117,-0.0116,-0.0079,-0.0079,-0.0079,-0.0079,0.0006,0.0008,0.001,0,0,0,0,0,0,0,0,0,0,0,0,0,-0.0203,-0.0202,-0.017,-0.0169,-0.0169,-0.0117,-0.0117,-0.0116,-0.0079,-0.0079,-0.0079,-0.0079,0.0005,0.0008,0.001,0,0,0,0,0,0,0,0,0,0,0,0,0,-0.0172,-0.0202,-0.017,-0.0145,-0.0142,-0.0118,-0.0116,-0.0115,-0.0079,-0.0079,-0.0079,-0.0079,0.0004,0.0007,0.001,0.0024,0,0,0.002,0.0021,0,0,0,0,0,0,0,0,-0.0174,-0.0171,-0.0149,-0.0147,-0.0144,-0.0105,-0.0097,-0.0068,-0.0079,-0.0102,-0.0079,-0.0078,-0.0029,-0.0023,-0.0013,0.0028,0.0032,0.002,0.0022,0.0023,0.0024,0,0,0,0,0,0,0,-0.0176,-0.0173,-0.0148,-0.0149,-0.0145,-0.0124,-0.012,-0.0091,-0.0066,-0.01,-0.0098,-0.0094,-0.0027,-0.0016,-0.0011,0.0033,0.002,0.0023,0.0025,0.0026,0.0102,0.0102,0,0,0,0,0,0,-0.0187,-0.0175,-0.0149,-0.0146,-0.016,-0.0124,-0.0119,-0.0117,-0.0067,-0.006,-0.0094,-0.0092,-0.0022,-0.0014,-0.0008,0.0017,0.0023,0.0026,0.0028,0.0102,0.0102,0.0102,0,0,0,0,0,0,-0.0188,-0.0185,-0.0152,-0.016,-0.0155,-0.0124,-0.0122,-0.0116,-0.0106,-0.0063,-0.0055,-0.009,-0.0021,-0.0012,0.0017,0.002,0.0028,0.0031,0.0102,0.0102,0.0102,0.0063,0,0,0,0,0,0,-0.0189,-0.0186,-0.0191,-0.0161,-0.0155,-0.0142,-0.0122,-0.0115,-0.0105,-0.0102,-0.0057,-0.0049,-0.002,0.0012,0.002,0.0025,0.0033,0.0101,0.0102,0.0102,0.0064,0.0062,0.006,0,0,0,0,0,-0.0191,-0.0198,-0.0191,-0.0188,-0.0161,-0.0142,-0.0137,-0.0114,-0.0105,-0.0103,-0.0071,-0.005,0.002,0.0015,0.0024,0.003,0.0101,0.0102,0.0102,0.0065,0.0062,0.006,0,0,0,0,0,0,-0.0214,-0.0194,-0.0186,-0.0187,-0.0169,-0.0137,-0.0135,-0.0118,-0.0092,-0.009,-0.0049,-0.0038,-0.0012,0.0014,0.0007,0.0053,0.0064,0.0066,0.0033,0.0031,0.0029,0.0023,0.0036,0,0,0,0,0,-0.0223,-0.0224,-0.0199,-0.0201,-0.0194,-0.0166,-0.0157,-0.0141,-0.0114,-0.0102,-0.0071,-0.0035,-0.0003,0.0016,0.0045,0.0071,0.0104,0.0081,0.0079,0.0077,0.0079,0.0132,0.0135,0.0103,0.0103,0.0103,0,0,-0.0234,-0.0223,-0.0224,-0.0207,-0.0192,-0.0185,-0.016,-0.015,-0.014,-0.0097,-0.0075,-0.0044,0.0,0.0028,0.0043,0.0051,0.0103,0.0077,0.0075,0.0079,0.0133,0.0136,0.0139,0.0103,0.0103,0.0103,0,0,-0.0257,-0.0247,-0.0255,-0.0243,-0.0225,-0.0204,-0.0204,-0.0174,-0.0156,-0.0133,-0.0098,-0.0064,-0.0021,0.0018,0.0042,0.0047,0.0086,0.0053,0.0044,0.0095,0.0099,0.0102,0.0143,0.015,0.0056,0.0056,0.0056,0,-0.0272,-0.0277,-0.0254,-0.0257,-0.025,-0.0216,-0.0219,-0.0195,-0.0159,-0.0139,-0.0134,-0.0055,-0.0023,0.0028,0.0027,0.0043,0.0074,0.0048,0.0093,0.0097,0.0101,0.0142,0.015,0.0054,0.0055,0.0055,0.0055,0,-0.0297,-0.0301,-0.0305,-0.0296,-0.0284,-0.0283,-0.0248,-0.0229,-0.0205,-0.0175,-0.0128,-0.0079,-0.0029,-0.0014,0.0007,0.0054,0.0066,0.0079,0.0097,0.0101,0.0145,0.0154,0.0052,0.0052,0.0053,0.0053,0,0,-0.033,-0.0325,-0.0327,-0.033,-0.0306,-0.0298,-0.0277,-0.0243,-0.022,-0.0181,-0.0144,-0.009,-0.0059,-0.0029,0.0009,0.0054,0.0103,0.0073,0.0076,0.011,0.0211,0.0194,0.0203,0.0123,0.0125,0.0126,0.0227,0,-0.0358,-0.0378,-0.036,-0.0371,-0.0378,-0.0337,-0.0318,-0.028,-0.0238,-0.0192,-0.0128,-0.0082,-0.0064,-0.0038,0.0008,0.008,0.0127,0.0074,0.0205,0.0209,0.0191,0.0213,0.0131,0.0235,0.0237,0.0239,0.024,0,-0.0387,-0.0397,-0.0421,-0.0408,-0.0404,-0.0404,-0.0361,-0.0337,-0.0259,-0.022,-0.016,-0.0105,-0.0031,-0.0019,0.0105,0.0069,0.0134,0.0189,0.0194,0.02,0.021,0.0233,0.0258,0.0256,0.0255,0.0254,0.0253,0,-0.0427,-0.0435,-0.0458,-0.0458,-0.0438,-0.0435,-0.0416,-0.0353,-0.0316,-0.0236,-0.0192,-0.0105,-0.0047,0.0038,0.0141,0.0128,0.028,0.028,0.033,0.0329,0.0331,0.0327,0.0374,0.0374,0.0374,0.0374,0.0373,0,-0.0461,-0.0479,-0.0485,-0.0499,-0.0515,-0.0481,-0.0469,-0.0429,-0.0351,-0.0301,-0.0215,-0.0143,-0.0028,0.0072,0.015,0.0267,0.029,0.0335,0.0359,0.0311,0.0303,0.0338,0.0332,0.0377,0.0377,0.0376,0.0375,0,-0.0501,-0.0505,-0.0538,-0.0539,-0.0541,-0.0555,-0.0513,-0.0489,-0.041,-0.0338,-0.0309,-0.0159,-0.0031,0.0082,0.0237,0.0285,0.0393,0.0432,0.0371,0.0388,0.0405,0.0397,0.0494,0.0495,0.0495,0.0495,0.0495,0,-0.0522,-0.0547,-0.0583,-0.0608,-0.0617,-0.0622,-0.0616,-0.0539,-0.0498,-0.0341,-0.0303,-0.015,-0.0054,0.0148,0.0266,0.0414,0.043,0.048,0.044,0.0407,0.042,0.0411,0.0402,0.0496,0.0496,0.0496,0.0496,0,-0.0566,-0.0588,-0.0615,-0.0674,-0.0694,-0.0697,-0.0677,-0.0641,-0.053,-0.0451,-0.0292,-0.0154,-0.0001,0.0149,0.0266,0.0374,0.0439,0.0484,0.0483,0.0446,0.041,0.0421,0.0412,0.0497,0.0497,0.0497,0.0497,0,-0.06,-0.0638,-0.0685,-0.0729,-0.0763,-0.0767,-0.0741,-0.0666,-0.0599,-0.0416,-0.0361,-0.0168,-0.0042,0.0133,0.0247,0.034,0.0358,0.037,0.0376,0.0377,0.0303,0.0238,0.0301,0,0,0,0,0,-0.0631,-0.0677,-0.073,-0.0779,-0.0813,-0.0826,-0.0777,-0.0728,-0.061,-0.0516,-0.0433,-0.0286,-0.0064,0.0058,0.0144,0.0228,0.0353,0.0332,0.0362,0.0502,0.0501,0.0432,0,0,0,0,0,0,-0.0655,-0.0716,-0.0742,-0.0811,-0.0849,-0.0871,-0.0843,-0.076,-0.0686,-0.0553,-0.0437,-0.0302,-0.0096,-0.0144,0.0126,0.0168,0.0194,0.0457,0.0459,0.0503,0.0502,0.0501,0.043,0,0,0,0,0]}]]